This is the latest recevied weather packets stored in our database for station/object VE3MNX. If no packets are shown the sender has not sent any weather packets the latest 10 day(s).
| Time | Temp. | Humidity | Pressure | Rain* | Wind** | Luminosity | Snow |
|---|---|---|---|---|---|---|---|
| 1777747994 | 7.22° C | 58% | 1016.3 hPa | 0 mm | - | - | - |
| 1777747093 | 7.78° C | 58% | 1016.3 hPa | 0 mm | - | - | - |
| 1777746194 | 7.22° C | 61% | 1016.3 hPa | 0 mm | - | - | - |
| 1777745293 | 6.67° C | 65% | 1016.6 hPa | 0 mm | - | - | - |
| 1777744394 | 6.67° C | 62% | 1016.6 hPa | 0 mm | - | - | - |
| 1777743493 | 6.67° C | 63% | 1016.3 hPa | 0 mm | - | - | - |
| 1777742592 | 6.67° C | 65% | 1016.6 hPa | 0 mm | - | - | - |
| 1777741693 | 6.11° C | 68% | 1016.6 hPa | 0 mm | - | - | - |
| 1777740794 | 6.11° C | 69% | 1016.6 hPa | 0 mm | - | - | - |
| 1777739892 | 6.11° C | 66% | 1016.9 hPa | 0 mm | - | - | - |
| 1777738993 | 6.11° C | 62% | 1016.6 hPa | 0 mm | - | - | - |
| 1777738093 | 6.67° C | 63% | 1016.3 hPa | 0 mm | - | - | - |
| 1777737193 | 7.22° C | 63% | 1016.6 hPa | 0 mm | - | - | - |
| 1777736292 | 7.78° C | 64% | 1016.3 hPa | 0 mm | - | - | - |
| 1777735393 | 7.22° C | 67% | 1016.6 hPa | 0 mm | - | - | - |
| 1777734493 | 7.22° C | 65% | 1016.4 hPa | 0 mm | - | - | - |
| 1777733592 | 6.67° C | 66% | 1016.6 hPa | 0 mm | - | - | - |
| 1777732692 | 6.11° C | 71% | 1016.3 hPa | 0 mm | - | - | - |
| 1777731793 | 5.56° C | 71% | 1016.6 hPa | 0 mm | - | - | - |
| 1777730892 | 6.11° C | 72% | 1016.6 hPa | 0 mm | - | - | - |
| 1777729993 | 6.11° C | 67% | 1016.3 hPa | 0 mm | - | - | - |
| 1777729093 | 6.67° C | 70% | 1016.6 hPa | 0 mm | - | - | - |
| 1777728192 | 6.11° C | 69% | 1016.6 hPa | 0 mm | - | - | - |
| 1777727292 | 4.44° C | 75% | 1016.6 hPa | 0 mm | - | - | - |
| 1777726393 | 4.44° C | 76% | 1016.6 hPa | 0 mm | - | - | - |
* Rain latest hour (hover to see other rain measurements)
** Current wind speed in m/s (hover to see current wind gust speed)